Home   Weather   Winamac   Past weeks

Flag for USA Past Weather in Winamac, Indiana, USA — Yesterday and Last 2 Weeks

Now
33 °F

Low clouds.


Feels Like: N/A
Forecast: 29 / 36 °F
Wind: N/A

Location: Porter County Municipal Airport

Current Time: Dec 5, 2016 at 9:46:23 am

Latest Report: Dec 5, 2016 at 7:56 am


Visibility: 10 mi

Pressure: 30.05 "Hg

Humidity: 88%

Dew Point: 30 °F

Location of WinamacLocation

Past Weather in Winamac — Graph

°F

Winamac Temperature Yesterday

Maximum temperature yesterday: 35 °F (at 11:56 am)
Minimum temperature yesterday: 31 °F (at 2:56 am)
Average temperature yesterday: 33 °F

High & Low Weather Summary for the Past Weeks

 TemperatureHumidityPressure
High58 °F (Nov 29, 1:56 pm)97% (Nov 27, 12:56 pm)30.38 "Hg (Nov 27, 12:56 pm)
Low26 °F (Nov 22, 3:56 am)49% (Nov 21, 12:56 pm)29.19 "Hg (Nov 28, 9:56 pm)
Average38 °F78%30.06 "Hg
* Reported Nov 20 7:56 am — Dec 5 7:56 am, Winamac, Weather by CustomWeather, © 2016

Note: Actual official high and low records may vary slightly from our data, if they occured in-between our weather recording intervals... More about our weather records

Advertising

Winamac Weather History for the Previous 24 Hours

Scroll right to see more
 ConditionsComfort  
Time TempWeatherWind HumidityBarometerVisibility
7:56 am
Mon, Dec 5
33 °FLow clouds.N/A88%30.05 "Hg10 mi
6:56 am33 °FLow clouds.N/A88%30.05 "Hg10 mi
5:56 am33 °FLow clouds.N/A88%30.04 "Hg10 mi
4:56 am33 °FLow clouds.N/A88%30.04 "Hg10 mi
3:56 am34 °FLow clouds.N/A85%30.03 "Hg10 mi
2:56 am33 °FLow clouds.N/A88%30.01 "Hg10 mi
1:56 am33 °FLow clouds.N/A88%29.99 "Hg10 mi
12:56 am34 °FFog.N/A88%29.96 "Hg6 mi
11:56 pm
Sun, Dec 4
34 °FLow clouds.N/A85%29.95 "Hg8 mi
10:56 pm34 °FLow clouds.N/A88%29.93 "Hg8 mi
9:56 pm33 °FFog.N/A92%29.90 "Hg4 mi
8:56 pm34 °FFog.6 mph88%29.89 "Hg6 mi
8:03 pm33 °FFog.6 mph92%29.87 "Hg2 mi
7:56 pm33 °FLight snow. Fog.5 mph92%29.89 "Hg2 mi
6:56 pm34 °FLight snow. Fog.No wind88%29.90 "Hg1 mi
5:56 pm33 °FLight snow. Fog.5 mph92%29.90 "Hg1 mi
4:56 pm33 °FSnow. Fog.8 mph92%29.90 "Hg1 mi
3:56 pm33 °FSnow. Fog.8 mph92%29.94 "Hg1 mi
2:56 pm33 °FSnow. Fog.7 mph92%29.97 "Hg1 mi
1:56 pm33 °FSnow. Fog.7 mph92%30.00 "Hg1 mi
12:56 pm34 °FSnow. Fog.6 mph88%30.05 "Hg1 mi
11:56 am35 °FLight snow. Mostly cloudy.8 mph78%30.08 "Hg3 mi
10:56 am34 °FOvercast.7 mph79%30.13 "Hg9 mi
9:56 am33 °FOvercast.8 mph78%30.16 "Hg8 mi
Weather by CustomWeather, © 2016

See weather overviewHow to use our weather pages